Powrót do katalogu

STARLINK-34343 DEB

AktywnyPO
NORAD 69730·DEBRIS·🇺🇸 United States

Wystrzelony May 27, 2025 z Vandenberg Space Force Base

Loading…

Następne Przeloty (najbliższe 24 godziny)

TLE

Starzejące sięSource: Space-Track

Epoka: Sep 5, 2026, 21:20 UTC

1 69730U 25112AB  26248.88919455  .03401036  11390-1  13804-1 0  9996
2 69730  97.5992 303.0667 0017648 266.9564  92.9688 15.88832013 23047

Śledź STARLINK-34343 DEB w czasie rzeczywistym z AllMySat

Download on the App Store